SRD230E EGMD-EGMC

Flight info

Callsign SRD230E
Flight time N/A
Altitude 6000
Route LYD DCT DET DCT ATPEV/N0164F070 DCT SODVU DCT MANGO
Aircraft DA62/L-SDFGRY/C

Departure

Time 2026-05-04 22:50
Airport Lydd London Ashford Airport (EGMD)

Arrival

Time N/A
Airport London Southend Airport (EGMC)
Time Latitude Longitude Altitude Speed Heading
2026-05-04 22:33 50.95792 0.93181 12 ft 0 kts 183°
2026-05-04 22:45 50.95752 0.93230 12 ft 13 kts 136°
2026-05-04 22:45 50.95683 0.93330 12 ft 13 kts 137°
2026-05-04 22:46 50.95617 0.93427 13 ft 12 kts 137°
2026-05-04 22:46 50.95552 0.93500 14 ft 11 kts 134°
2026-05-04 22:46 50.95496 0.93583 14 ft 11 kts 136°
2026-05-04 22:46 50.95449 0.93566 14 ft 14 kts 214°
2026-05-04 22:47 50.95370 0.93483 14 ft 13 kts 213°
2026-05-04 22:47 50.95307 0.93430 14 ft 4 kts 186°
2026-05-04 22:47 50.95306 0.93430 14 ft 0 kts 184°
2026-05-04 22:48 50.95305 0.93430 14 ft 0 kts 184°
2026-05-04 22:48 50.95256 0.93449 14 ft 10 kts 161°
2026-05-04 22:49 50.95224 0.93512 14 ft 6 kts 55°
2026-05-04 22:49 50.95233 0.93524 14 ft 0 kts 33°
2026-05-04 22:50 50.95269 0.93562 14 ft 32 kts 33°
2026-05-04 22:50 50.95632 0.93927 22 ft 83 kts 34°
2026-05-04 22:50 50.96061 0.94365 374 ft 72 kts 34°
2026-05-04 22:50 50.96491 0.94822 646 ft 77 kts 34°
2026-05-04 22:51 50.96952 0.95258 931 ft 78 kts 24°
2026-05-04 22:51 50.97480 0.95164 1234 ft 85 kts 338°
2026-05-04 22:51 50.97861 0.94418 1542 ft 90 kts 311°
2026-05-04 22:51 50.98147 0.93528 1842 ft 92 kts 307°
2026-05-04 22:52 50.98432 0.92606 2132 ft 93 kts 306°
2026-05-04 22:52 50.98744 0.91642 2439 ft 100 kts 307°
2026-05-04 22:52 50.99087 0.90740 2842 ft 91 kts 327°
2026-05-04 22:52 50.99571 0.90133 3189 ft 89 kts 332°
2026-05-04 22:53 51.00082 0.89574 3566 ft 89 kts 334°
2026-05-04 22:53 51.00593 0.89042 3914 ft 90 kts 334°
2026-05-04 22:53 51.01120 0.88502 4250 ft 91 kts 339°
2026-05-04 22:53 51.01659 0.87975 4609 ft 94 kts 334°
2026-05-04 22:54 51.02226 0.87401 4941 ft 95 kts 332°
2026-05-04 22:54 51.02786 0.86858 5281 ft 96 kts 330°
2026-05-04 22:54 51.03340 0.86309 5658 ft 92 kts 334°
2026-05-04 22:54 51.03888 0.85777 5913 ft 96 kts 332°
2026-05-04 22:55 51.04523 0.85157 5996 ft 117 kts 331°
2026-05-04 22:55 51.05280 0.84416 6004 ft 136 kts 330°
2026-05-04 22:55 51.06126 0.83585 5996 ft 149 kts 330°
2026-05-04 22:55 51.07029 0.82701 5989 ft 157 kts 330°
2026-05-04 22:56 51.07977 0.81772 5984 ft 161 kts 330°
2026-05-04 22:56 51.08939 0.80832 5979 ft 163 kts 330°
2026-05-04 22:56 51.09897 0.79895 5978 ft 164 kts 330°
2026-05-04 22:56 51.10873 0.78941 5978 ft 165 kts 330°
2026-05-04 22:57 51.11858 0.77977 5977 ft 165 kts 330°
2026-05-04 22:57 51.12838 0.77014 5978 ft 166 kts 330°
2026-05-04 22:57 51.13813 0.76060 5977 ft 166 kts 330°
2026-05-04 22:57 51.14794 0.75098 5977 ft 166 kts 330°
2026-05-04 22:58 51.15780 0.74130 5976 ft 166 kts 330°
2026-05-04 22:58 51.16756 0.73172 5976 ft 165 kts 330°
2026-05-04 22:58 51.17741 0.72205 5976 ft 165 kts 330°
2026-05-04 22:58 51.18723 0.71240 5974 ft 165 kts 330°
2026-05-04 22:59 51.19691 0.70293 5975 ft 165 kts 331°
2026-05-04 22:59 51.20693 0.69372 5976 ft 165 kts 331°
2026-05-04 22:59 51.21685 0.68465 5975 ft 165 kts 332°
2026-05-04 22:59 51.22678 0.67559 5975 ft 165 kts 332°
2026-05-04 23:00 51.23676 0.66644 5976 ft 165 kts 332°
2026-05-04 23:00 51.24667 0.65738 5977 ft 165 kts 332°
2026-05-04 23:00 51.25663 0.64829 5979 ft 165 kts 332°
2026-05-04 23:00 51.26659 0.63924 5979 ft 165 kts 332°
2026-05-04 23:01 51.27657 0.63016 5979 ft 165 kts 332°
2026-05-04 23:01 51.28644 0.62117 5979 ft 164 kts 332°
2026-05-04 23:01 51.29640 0.61210 5979 ft 164 kts 332°
2026-05-04 23:01 51.30634 0.60302 5979 ft 164 kts 332°
2026-05-04 23:02 51.31635 0.59385 5981 ft 164 kts 332°
2026-05-04 23:02 51.32618 0.58488 5980 ft 164 kts 332°
2026-05-04 23:02 51.33599 0.57593 5911 ft 159 kts 332°
2026-05-04 23:02 51.34556 0.56722 5661 ft 159 kts 332°
2026-05-04 23:03 51.35515 0.55846 5403 ft 158 kts 332°
2026-05-04 23:03 51.36472 0.54965 5155 ft 158 kts 332°
2026-05-04 23:03 51.37413 0.54092 4905 ft 157 kts 332°
2026-05-04 23:03 51.38350 0.53217 4654 ft 156 kts 332°
2026-05-04 23:04 51.39280 0.52341 4400 ft 156 kts 332°
2026-05-04 23:04 51.40205 0.51463 4143 ft 153 kts 332°
2026-05-04 23:04 51.41123 0.50584 3881 ft 151 kts 332°
2026-05-04 23:04 51.42018 0.49736 3620 ft 149 kts 336°
2026-05-04 23:05 51.43003 0.49598 3353 ft 144 kts 17°
2026-05-04 23:05 51.43948 0.50123 3105 ft 143 kts 20°
2026-05-04 23:05 51.44846 0.50676 2986 ft 135 kts 21°
2026-05-04 23:05 51.45686 0.51194 2960 ft 124 kts 21°
2026-05-04 23:06 51.46492 0.51687 2788 ft 125 kts 21°
2026-05-04 23:06 51.47301 0.52182 2579 ft 122 kts 21°
2026-05-04 23:06 51.48089 0.52660 2377 ft 121 kts 21°
2026-05-04 23:06 51.48873 0.53133 2174 ft 121 kts 21°
2026-05-04 23:07 51.49627 0.53677 2001 ft 118 kts 37°
2026-05-04 23:07 51.50211 0.54566 1976 ft 114 kts 45°
2026-05-04 23:07 51.50727 0.55517 1971 ft 112 kts 48°
2026-05-04 23:07 51.51210 0.56502 1971 ft 111 kts 50°
2026-05-04 23:08 51.51670 0.57482 1956 ft 111 kts 50°
2026-05-04 23:08 51.52127 0.58480 1795 ft 111 kts 51°
2026-05-04 23:08 51.52586 0.59484 1632 ft 112 kts 51°
2026-05-04 23:08 51.53045 0.60493 1463 ft 113 kts 52°
2026-05-04 23:09 51.53495 0.61489 1286 ft 106 kts 52°
2026-05-04 23:09 51.53904 0.62389 1158 ft 94 kts 52°
2026-05-04 23:09 51.54279 0.63219 995 ft 90 kts 53°